{"data":{"norad_id":51783,"intl_designator":"2022-017R","name":"STARLINK-3628","alt_names":[],"object_type":"PAYLOAD","status":"ACTIVE","operator":null,"country":"US","launch_date":"2022-02-25","launch_site_code":"AFWTR","launch_vehicle":null,"mission":null,"orbit_class":"UNKNOWN","rcs_meters":null,"size_class":null,"mass_kg":null,"dimensions":null,"purposes":["comms"],"wikipedia_slug":null,"has_3d_model":false,"image_url":null,"decayed_at":null,"tle_current":{"epoch":"2026-05-24T21:26:44.340000Z","epoch_age_seconds":80420,"freshness":"FRESH","line1":"1 51783U 22017R   26144.89356875 -.00000486  00000+0 -12451-4 0  9990","line2":"2 51783  53.2144 357.0778 0001752  94.3769 265.7424 15.08845732233927","mean_motion":15.08845732,"eccentricity":0.0001752,"inclination_deg":53.2144,"raan_deg":357.0778,"arg_perigee_deg":94.3769,"mean_anomaly_deg":265.7424,"bstar":-1.2451e-5,"rev_number":23392,"period_min":95.437192117133,"perigee_km":538.51385901412,"apogee_km":540.93787816327,"semimajor_km":6917.8628685887,"source":"CELESTRAK","updated_at":"2026-05-25T13:38:16.952972Z"}}}